Location: Newark
(47.5989°N, 4.6950°E)
Time: 05:21:03
(UTC+00:00)

N. Korean satellite - Visible Passes

Search period start: 13 November 2019 00:00
Search period end: 23 November 2019 00:00
Orbit: 456 x 506 km, 97.2° (Epoch: 12 November)

Date Brightness Start Highest point End Pass type
(mag) Time Alt. Az. Time Alt. Az. Time Alt. Az.
13 Nov 7.0 05:33:56 10° NNE 05:37:40 69° ESE 05:41:22 10° S visible
13 Nov 9.9 17:47:11 10° SW 17:49:27 16° W 17:51:44 10° NW visible
14 Nov 8.5 05:08:47 10° NNE 05:12:14 34° E 05:15:37 10° SSE visible
14 Nov 8.8 17:20:41 10° SSW 17:23:52 29° W 17:27:09 10° NNW visible
15 Nov 9.7 04:44:02 10° NE 04:46:41 18° E 04:49:19 10° SE visible
15 Nov 7.3 16:54:50 10° S 16:58:24 59° W 17:02:03 10° NNW visible
16 Nov 6.6 05:51:12 10° N 05:54:55 73° WNW 05:58:36 10° SSW visible
16 Nov 10.4 18:06:28 10° W 18:06:53 10° W 18:07:17 10° W visible
17 Nov 7.4 05:25:52 10° NNE 05:29:32 55° E 05:33:09 10° S visible
17 Nov 9.6 17:38:33 10° SW 17:41:14 19° W 17:43:57 10° NW visible
18 Nov 8.9 05:00:48 10° NE 05:04:03 28° E 05:07:15 10° SSE visible
18 Nov 8.4 17:12:18 10° SSW 17:15:41 36° W 17:19:08 10° NNW visible
19 Nov 9.9 04:36:14 10° NE 04:38:28 15° E 04:40:39 10° SE visible
19 Nov 6.9 06:08:32 10° N 06:12:06 45° WNW 06:15:37 10° SW visible
19 Nov 6.9 16:46:36 10° S 16:50:14 75° WSW 16:53:57 10° NNW visible
20 Nov 6.6 05:43:01 10° NNE 05:46:46 90° E 05:50:26 10° SSW visible
20 Nov 10.1 17:56:55 10° WSW 17:58:36 13° W 18:00:18 10° WNW visible
21 Nov 7.9 05:17:46 10° NNE 05:21:20 44° E 05:24:50 10° S visible
21 Nov 9.3 17:29:59 10° SSW 17:32:59 24° W 17:36:02 10° NW visible
22 Nov 9.2 04:52:49 10° NE 04:55:48 23° E 04:58:45 10° SSE visible
22 Nov 7.9 17:03:56 10° S 17:07:28 45° W 17:11:04 10° NNW visible
